Tracking 18840 objects as of 18-November-2017
HD Live streaming from Space Station
objects crossing your sky now

BREEZE-M R/B

Track BREEZE-M R/B now!


NORAD ID: 37807
Int'l Code: 2011-048B
Perigee: 33,734.5 km
Apogee: 35,687.1 km
Inclination: 4.2 °
Period: 1,381.1 minutes
Semi major axis: 41081 km
RCS: 0.003 m2 (small)
Launch date: September 20, 2011
Source: Commonwealth of Independent States (former USSR) (CIS)
Launch site: TYURATAM MISSILE AND SPACE COMPLEX (TTMTR)

Note: This is a ROCKET BODY
aabbcc
Your satellite tracking list
Your tracking list is empty




NASA's NSSDC Master Catalog

Two Line Element Set (TLE):
1 37807U 11048B   17321.60257660 -.00000088 +00000-0 +00000-0 0  9992
2 37807 004.2445 064.0444 0237650 006.0198 184.3008 01.04262679022943
Source of the keplerian elements: AFSPC